Weather History for Crestview, FL

Change the Weather History Date:

Friday, November 16, 2012

  Actual Average Record
Temperature  
Mean Temperature 48 °F -  
Max Temperature 56 °F - - ()
Min Temperature 38 °F - - ()
Degree Days  
Heating Degree Days 18    
Moisture  
Dew Point 44 °F    
Average Humidity 85    
Maximum Humidity 97    
Minimum Humidity 72    
Precipitation  
Precipitation 0.00 in - - ()
Sea Level Pressure  
Sea Level Pressure 30.25 in    
Wind  
Wind Speed 5 mph (NNE)    
Max Wind Speed 12 mph    
Max Gust Speed -    
Visibility 10 miles    
Events      
T = Trace of Precipitation, MM = Missing Value Source: NWS Daily Summary

Daily Weather History Graph

Daily Weather History Graph

Search for Another Location

Airport:

Trip Planner

Search our weather history database for the weather conditions in past years. The results will help you decide how hot, cold, wet, or windy it might be!

Date:

Astronomy

Nov. 16, 2012 Rise Set
Actual Time 6:13 AM CST 4:48 PM CST
Civil Twilight 5:48 AM CST 5:13 PM CST
Nautical Twilight 5:18 AM CST 5:42 PM CST
Astronomical Twilight 4:50 AM CST 6:11 PM CST
Moon 9:04 AM CST (11/16) 7:49 PM CST (11/16)
Length of Visible Light 11h 25m
Length of Day
10h 34m
Waxing Crescent, 12% of the Moon is Illuminated
Nov 16
Waxing Crescent
Nov 20
First Quarter
Nov 28
Full
Dec 6
Last Quarter
Dec 13
New

Hourly Weather History & Observations

Time (CST) Temp. Windchill Dew Point Humidity Pressure Visibility Wind Dir Wind Speed Gust Speed Precip Events Conditions
12:55 AM 48.6 °F - 43.3 °F 82% 30.24 in 10.0 mi NE 4.6 mph - N/A   Overcast
1:55 AM 48.6 °F - 43.9 °F 84% 30.24 in 10.0 mi Calm Calm - N/A   Overcast
2:55 AM 48.6 °F - 43.7 °F 83% 30.23 in 10.0 mi Calm Calm - N/A   Overcast
3:55 AM 48.6 °F - 43.7 °F 83% 30.22 in 10.0 mi NE 8.1 mph - N/A   Overcast
4:55 AM 48.4 °F - 43.9 °F 84% 30.23 in 10.0 mi NE 3.5 mph - N/A   Overcast
5:37 AM 48.2 °F - 44.6 °F 87% 30.23 in 10.0 mi ENE 5.8 mph - N/A   Overcast
5:55 AM 47.8 °F - 43.9 °F 86% 30.25 in 10.0 mi NE 4.6 mph - N/A   Overcast
6:35 AM 46.4 °F 43.5 °F 44.6 °F 93% 30.26 in 10.0 mi NNE 5.8 mph - N/A   Overcast
6:55 AM 47.1 °F - 43.9 °F 88% 30.26 in 10.0 mi NE 9.2 mph - N/A   Overcast
7:55 AM 46.9 °F - 43.3 °F 87% 30.27 in 10.0 mi NNE 6.9 mph - N/A   Overcast
7:58 AM 46.4 °F 42.9 °F 42.8 °F 87% 30.27 in 10.0 mi Variable 6.9 mph - N/A   Overcast
8:55 AM 48.2 °F - 44.6 °F 87% 30.29 in 10.0 mi NE 5.8 mph - N/A   Overcast
9:55 AM 48.9 °F - 44.2 °F 84% 30.29 in 10.0 mi NNE 6.9 mph - N/A   Overcast
10:30 AM 50.0 °F - 44.6 °F 82% 30.27 in 10.0 mi NNE 8.1 mph - N/A   Overcast
10:55 AM 50.2 °F - 44.2 °F 80% 30.28 in 10.0 mi NE 6.9 mph - N/A   Overcast
11:55 AM 52.0 °F - 44.8 °F 76% 30.26 in 10.0 mi North 11.5 mph - N/A   Overcast
12:55 PM 52.0 °F - 45.5 °F 79% 30.24 in 10.0 mi NNE 6.9 mph - N/A   Overcast
1:42 PM 53.6 °F - 46.4 °F 77% 30.23 in 10.0 mi NNE 10.4 mph - N/A   Overcast
1:55 PM 53.1 °F - 45.9 °F 77% 30.26 in 10.0 mi NNE 5.8 mph - N/A   Overcast
2:55 PM 54.9 °F - 46.6 °F 74% 30.25 in 10.0 mi North 4.6 mph - N/A   Mostly Cloudy
3:30 PM 55.4 °F - 46.4 °F 72% 30.22 in 10.0 mi NNW 5.8 mph - N/A   Scattered Clouds
3:55 PM 56.1 °F - 47.1 °F 72% 30.22 in 10.0 mi NNW 3.5 mph - N/A   Scattered Clouds
4:55 PM 52.3 °F - 47.7 °F 84% 30.22 in 10.0 mi WNW 2.3 mph - N/A   Partly Cloudy
5:55 PM 46.9 °F - 45.7 °F 95% 30.23 in 10.0 mi Calm Calm - N/A   Clear
6:55 PM 44.4 °F - 43.7 °F 97% 30.25 in 10.0 mi Calm Calm - N/A   Clear
7:55 PM 42.8 °F - 42.1 °F 97% 30.26 in 10.0 mi NNE 1.2 mph - N/A   Clear
8:55 PM 41.0 °F - 40.1 °F 97% 30.27 in 9.0 mi NNE 1.2 mph - N/A   Clear
9:55 PM 40.6 °F - 39.6 °F 96% 30.28 in 10.0 mi NW 2.3 mph - N/A   Clear
10:55 PM 39.6 °F - 38.8 °F 97% 30.28 in 10.0 mi NE 2.3 mph - N/A   Clear
11:55 PM 38.5 °F - 37.2 °F 95% 30.28 in 10.0 mi North 2.3 mph - N/A   Clear